Regional Weather Roundup
Issued by NWS

Home | Current Version | Previous Version | Text Only | Print | Product List | Glossary On
Versions: 1 2 3 4 5 6 7 8 9 10 11 12 13 14 15 16 17 18 19 20 21 22 23 24 25 26 27 28 29 30 31 32 33 34 35 36 37 38 39 40 41 42 43 44 45 46 47 48 49 50
000
ASUS44 KJAN 030010
RWRMS

MISSISSIPPI HOURLY WEATHER ROUNDUP
NATIONAL WEATHER SERVICE JACKSON MS
600 PM CST MON MAR 02 2015

NOTE: "FAIR: INDICATES FEW OR NO CLOUDS BELOW 12,000 FEET WITH NO
SIGNIFICANT WEATHER AND/OR OBSTRUCTIONS TO VISIBILITY.

MSZ001>002-007>008-010>013-018>021-025>028-034>036-030100-
NORTHWEST MISSISSIPPI

CITY           SKY/WX    TMP DP  RH WIND       PRES   REMARKS
CLARKSDALE     CLOUDY    39  39 100 N8        30.32R WCI  34
CLEVELAND      CLOUDY    39  39 100 NE7       30.29S FOG     WCI  34
GREENWOOD      CLOUDY    44  43  96 NE9       30.28R
GREENVILLE     CLOUDY    40  38  93 N9        30.28S FOG     WCI  34
6HR MIN TEMP:  40; 6HR MAX TEMP:  41; 6HR PCP: TRACE;

OLIVE BRANCH   CLOUDY    37  37 100 N5        30.32R WCI  34
OXFORD         CLOUDY    39  37  93 NE7       30.30S FOG     WCI  34
TUNICA         MOCLDY    39  37  93 N7        30.32S WCI  34
$$

MSZ003>006-009-014>017-022>024-029>033-037>039-030100-
NORTHEAST MISSISSIPPI

CITY           SKY/WX    TMP DP  RH WIND       PRES   REMARKS
COLUMBUS AFB   CLOUDY    46  46  97 NE2       30.27F
6HR MIN TEMP:  46; 6HR MAX TEMP:  47; 6HR PCP:  0.01;

CORINTH        DRIZZLE   45  39  81 CALM      30.30S
GOLDN TRIANGLE CLOUDY    46  43  87 NE8       30.27S
STARKVILLE     CLOUDY    45  45 100 NE7       30.27F FOG
TUPELO         CLOUDY    43  41  93 NE6       30.29F FOG
6HR MIN TEMP:  42; 6HR MAX TEMP:  45; 6HR PCP:  0.14;

$$

MSZ040-058-030100-
CENTRAL MISSISSIPPI

CITY           SKY/WX    TMP DP  RH WIND       PRES   REMARKS
JACKSON INTL   FOG       53  52  96 N5        30.22F VSB 1
6HR MIN TEMP:  51; 6HR MAX TEMP:  54; 6HR PCP:  0.05;

JACKSON HAWKNS CLOUDY    52  50  93 CALM      30.22F FOG
6HR MIN TEMP:  50; 6HR MAX TEMP:  52; 6HR PCP:  0.06;

MERIDIAN KEY   CLOUDY    55  54  96 NE7       30.24F
6HR MIN TEMP:  55; 6HR MAX TEMP:  59; 6HR PCP:  0.01;

MERIDIAN NAS   CLOUDY    52  51  97 NE3       30.25S FOG
6HR MIN TEMP:  52; 6HR MAX TEMP:  57; 6HR PCP:  0.01;

VICKSBURG      CLOUDY    45  43  93 N8        30.27R
6HR MIN TEMP:  44; 6HR MAX TEMP:  45; 6HR PCP:  0.04;

$$

MSZ059>079-030100-
SOUTH MISSISSIPPI

CITY           SKY/WX    TMP DP  RH WIND       PRES   REMARKS
BROOKHAVEN     CLOUDY    55  55 100 NW6       30.23S
HATTIESBURG    CLOUDY    63  61  93 E6        30.22S
6HR MIN TEMP:  61; 6HR MAX TEMP:  63; 6HR PCP:  0.04;

MCCOMB         CLOUDY    63  62  97 CALM      30.20S
6HR MIN TEMP:  63; 6HR MAX TEMP:  64; 6HR PCP:  0.66;

NATCHEZ        CLOUDY    46  43  87 N6        30.24S
6HR MIN TEMP:  46; 6HR MAX TEMP:  46; 6HR PCP:  0.23;

PINE BELT      CLOUDY    61  57  88 E5        30.23R VSB 1/2
6HR MIN TEMP:  61; 6HR MAX TEMP:  61;

$$

MSZ080>082-030100-
COASTAL MISSISSIPPI

CITY           SKY/WX    TMP DP  RH WIND       PRES   REMARKS
BAY ST LOUIS   CLOUDY    66  63  88 E6        30.20S FOG
BILOXI         LGT RAIN  64  64 100 S5        30.21S FOG
6HR MIN TEMP:  64; 6HR MAX TEMP:  67; 6HR PCP:  0.15;

PASCAGOULA     CLOUDY    64  63  96 SE5       30.21S FOG
6HR MIN TEMP:  64; 6HR MAX TEMP:  70; 6HR PCP:  0.06;

GULFPORT       FOG       63  62  97 SE5       30.21R VSB 1/4
6HR MIN TEMP:  63; 6HR MAX TEMP:  65; 6HR PCP:  0.02;

$$


USA.gov is the U.S. government's official web portal to all federal, state and local government web resources and services.